Time,TemperatureF,DewpointF,PressureIn,WindDirection,WindDirectionDegrees,WindSpeedMPH,WindSpeedGustMPH,Humidity,HourlyPrecipIn,Conditions,Clouds,dailyrainin,SoftwareType,DateUTC
2013-04-23 00:06:00,17.5,14.0,29.81,ESE,115,3.0,10.0,86,0.00,,,0.00,weatherlink.com 1.10,2013-04-23 06:06:00,
2013-04-23 00:21:00,17.0,13.0,29.83,ESE,109,5.0,10.0,85,0.00,,,0.00,weatherlink.com 1.10,2013-04-23 06:21:00,
2013-04-23 00:36:00,16.5,13.0,29.82,ESE,109,0.0,10.0,85,0.00,,,0.00,weatherlink.com 1.10,2013-04-23 06:36:00,
2013-04-23 00:51:00,16.4,13.0,29.84,SE,130,0.0,6.0,86,0.00,,,0.00,weatherlink.com 1.10,2013-04-23 06:51:00,
2013-04-23 01:06:00,16.6,13.0,29.83,ESE,110,0.0,4.0,86,0.00,,,0.00,weatherlink.com 1.10,2013-04-23 07:06:00,
2013-04-23 01:21:00,16.7,13.0,29.83,East,101,1.0,7.0,86,0.00,,,0.00,weatherlink.com 1.10,2013-04-23 07:21:00,
2013-04-23 01:36:00,16.5,13.0,29.83,ESE,103,0.0,3.0,86,0.00,,,0.00,weatherlink.com 1.10,2013-04-23 07:36:00,
2013-04-23 01:51:00,16.1,12.0,29.83,South,184,0.0,0.0,84,0.00,,,0.00,weatherlink.com 1.10,2013-04-23 07:51:00,
2013-04-23 02:06:00,15.4,12.0,29.83,South,184,0.0,0.0,85,0.00,,,0.00,weatherlink.com 1.10,2013-04-23 08:06:00,
2013-04-23 02:21:00,15.1,11.0,29.82,South,184,0.0,0.0,85,0.00,,,0.00,weatherlink.com 1.10,2013-04-23 08:21:00,
2013-04-23 02:36:00,15.0,11.0,29.81,ESE,104,0.0,5.0,85,0.00,,,0.00,weatherlink.com 1.10,2013-04-23 08:36:00,
2013-04-23 02:51:00,14.9,11.0,29.80,ESE,113,0.0,0.0,85,0.00,,,0.00,weatherlink.com 1.10,2013-04-23 08:51:00,
2013-04-23 03:07:00,14.8,11.0,29.83,ESE,118,0.0,0.0,85,0.00,,,0.00,weatherlink.com 1.10,2013-04-23 09:07:00,
2013-04-23 03:22:00,14.4,10.0,29.83,WSW,249,0.0,2.0,84,0.00,,,0.00,weatherlink.com 1.10,2013-04-23 09:22:00,
2013-04-23 03:38:00,14.3,11.0,29.83,WSW,249,0.0,0.0,85,0.00,,,0.00,weatherlink.com 1.10,2013-04-23 09:38:00,
2013-04-23 03:52:00,14.4,11.0,29.83,WSW,249,0.0,0.0,85,0.00,,,0.00,weatherlink.com 1.10,2013-04-23 09:52:00,
2013-04-23 04:07:00,14.4,11.0,29.84,WSW,249,0.0,0.0,85,0.00,,,0.00,weatherlink.com 1.10,2013-04-23 10:07:00,
2013-04-23 04:22:00,14.4,11.0,29.85,WSW,249,0.0,1.0,85,0.00,,,0.00,weatherlink.com 1.10,2013-04-23 10:22:00,
2013-04-23 04:37:00,14.1,10.0,29.84,WSW,249,0.0,0.0,85,0.00,,,0.00,weatherlink.com 1.10,2013-04-23 10:37:00,
2013-04-23 04:52:00,14.1,10.0,29.84,WSW,249,0.0,0.0,85,0.00,,,0.00,weatherlink.com 1.10,2013-04-23 10:52:00,
2013-04-23 05:07:00,14.1,10.0,29.85,WSW,249,0.0,0.0,85,0.00,,,0.00,weatherlink.com 1.10,2013-04-23 11:07:00,
2013-04-23 05:22:00,14.0,10.0,29.85,WSW,249,0.0,0.0,85,0.00,,,0.00,weatherlink.com 1.10,2013-04-23 11:22:00,
2013-04-23 05:37:00,14.0,10.0,29.85,SSW,193,0.0,0.0,85,0.00,,,0.00,weatherlink.com 1.10,2013-04-23 11:37:00,
2013-04-23 05:52:00,14.1,10.0,29.86,SSW,193,0.0,0.0,85,0.00,,,0.00,weatherlink.com 1.10,2013-04-23 11:52:00,
2013-04-23 06:07:00,14.0,10.0,29.85,SSW,193,0.0,0.0,85,0.00,,,0.00,weatherlink.com 1.10,2013-04-23 12:07:00,
2013-04-23 06:22:00,13.9,10.0,29.85,SSW,193,0.0,0.0,85,0.00,,,0.00,weatherlink.com 1.10,2013-04-23 12:22:00,
2013-04-23 06:37:00,13.9,10.0,29.85,SSE,150,0.0,2.0,84,0.00,,,0.00,weatherlink.com 1.10,2013-04-23 12:37:00,
2013-04-23 06:52:00,13.9,10.0,29.85,SSE,148,0.0,0.0,84,0.00,,,0.00,weatherlink.com 1.10,2013-04-23 12:52:00,
2013-04-23 07:07:00,14.1,10.0,29.86,SE,144,0.0,1.0,85,0.00,,,0.00,weatherlink.com 1.10,2013-04-23 13:07:00,
2013-04-23 07:23:00,14.8,11.0,29.86,SE,144,0.0,1.0,85,0.00,,,0.00,weatherlink.com 1.10,2013-04-23 13:23:00,
2013-04-23 07:37:00,15.5,12.0,29.87,SE,145,0.0,2.0,84,0.00,,,0.00,weatherlink.com 1.10,2013-04-23 13:37:00,
2013-04-23 07:52:00,15.5,11.0,29.88,SSW,196,0.0,2.0,83,0.00,,,0.00,weatherlink.com 1.10,2013-04-23 13:52:00,
2013-04-23 08:07:00,15.7,12.0,29.88,South,185,0.0,1.0,84,0.00,,,0.00,weatherlink.com 1.10,2013-04-23 14:07:00,
2013-04-23 08:22:00,16.3,12.0,29.89,NW,309,0.0,0.0,83,0.00,,,0.00,weatherlink.com 1.10,2013-04-23 14:22:00,
2013-04-23 08:37:00,16.0,12.0,29.89,WNW,297,0.0,1.0,83,0.00,,,0.00,weatherlink.com 1.10,2013-04-23 14:37:00,
2013-04-23 08:52:00,16.8,12.0,29.90,SE,132,0.0,4.0,82,0.00,,,0.00,weatherlink.com 1.10,2013-04-23 14:52:00,
2013-04-23 09:08:00,18.0,13.0,29.90,ESE,107,0.0,4.0,80,0.00,,,0.00,weatherlink.com 1.10,2013-04-23 15:08:00,
2013-04-23 09:23:00,18.2,13.0,29.92,East,96,3.0,4.0,79,0.00,,,0.00,weatherlink.com 1.10,2013-04-23 15:23:00,
2013-04-23 09:38:00,18.3,13.0,29.92,East,87,0.0,5.0,80,0.00,,,0.00,weatherlink.com 1.10,2013-04-23 15:38:00,
2013-04-23 09:53:00,19.4,14.0,29.92,East,80,0.0,5.0,78,0.00,,,0.00,weatherlink.com 1.10,2013-04-23 15:53:00,
2013-04-23 10:08:00,20.2,14.0,29.92,NE,44,0.0,3.0,76,0.00,,,0.00,weatherlink.com 1.10,2013-04-23 16:08:00,
2013-04-23 10:23:00,20.3,13.0,29.93,ENE,60,0.0,7.0,74,0.00,,,0.00,weatherlink.com 1.10,2013-04-23 16:23:00,
2013-04-23 10:38:00,21.4,14.0,29.93,ENE,61,0.0,5.0,72,0.00,,,0.00,weatherlink.com 1.10,2013-04-23 16:38:00,
2013-04-23 10:54:00,21.4,13.0,29.94,NE,43,0.0,2.0,70,0.03,,,0.03,weatherlink.com 1.10,2013-04-23 16:54:00,
2013-04-23 11:08:00,21.4,13.0,29.95,East,90,0.0,3.0,69,0.05,,,0.05,weatherlink.com 1.10,2013-04-23 17:08:00,
2013-04-23 11:23:00,21.7,14.0,29.96,ESE,115,0.0,3.0,71,0.06,,,0.06,weatherlink.com 1.10,2013-04-23 17:23:00,
2013-04-23 11:38:00,21.5,15.0,29.96,ESE,111,3.0,6.0,75,0.08,,,0.08,weatherlink.com 1.10,2013-04-23 17:38:00,
2013-04-23 11:53:00,21.6,14.0,29.95,ENE,65,0.0,2.0,73,0.05,,,0.08,weatherlink.com 1.10,2013-04-23 17:53:00,
2013-04-23 12:08:00,22.7,15.0,29.95,East,87,0.0,7.0,73,0.03,,,0.08,weatherlink.com 1.10,2013-04-23 18:08:00,
2013-04-23 12:23:00,24.1,17.0,29.96,ESE,115,0.0,7.0,74,0.04,,,0.11,weatherlink.com 1.10,2013-04-23 18:23:00,
2013-04-23 12:39:00,24.6,16.0,29.95,ENE,61,0.0,5.0,69,0.05,,,0.13,weatherlink.com 1.10,2013-04-23 18:39:00,
2013-04-23 12:54:00,24.7,16.0,29.96,ESE,103,3.0,6.0,69,0.06,,,0.14,weatherlink.com 1.10,2013-04-23 18:54:00,
2013-04-23 13:08:00,24.4,16.0,29.95,ENE,65,0.0,0.0,71,0.06,,,0.14,weatherlink.com 1.10,2013-04-23 19:08:00,
2013-04-23 13:23:00,25.1,18.0,29.95,East,88,0.0,3.0,74,0.03,,,0.14,weatherlink.com 1.10,2013-04-23 19:23:00,
2013-04-23 13:38:00,26.7,20.0,29.95,SE,128,0.0,1.0,75,0.01,,,0.14,weatherlink.com 1.10,2013-04-23 19:38:00,
2013-04-23 13:53:00,24.9,18.0,29.95,NNE,24,0.0,4.0,75,0.00,,,0.14,weatherlink.com 1.10,2013-04-23 19:53:00,
2013-04-23 14:09:00,24.9,20.0,29.96,NW,306,2.0,4.0,81,0.00,,,0.14,weatherlink.com 1.10,2013-04-23 20:09:00,
2013-04-23 14:24:00,25.2,20.0,29.97,West,275,0.0,4.0,79,0.01,,,0.15,weatherlink.com 1.10,2013-04-23 20:24:00,
2013-04-23 14:39:00,24.2,18.0,29.97,NW,309,4.0,4.0,76,0.01,,,0.15,weatherlink.com 1.10,2013-04-23 20:39:00,
2013-04-23 14:54:00,24.2,19.0,29.98,NW,309,0.0,3.0,81,0.01,,,0.15,weatherlink.com 1.10,2013-04-23 20:54:00,
2013-04-23 15:09:00,25.7,21.0,29.98,NW,305,0.0,4.0,81,0.01,,,0.15,weatherlink.com 1.10,2013-04-23 21:09:00,
2013-04-23 15:24:00,26.8,21.0,29.99,NW,318,2.0,7.0,80,0.00,,,0.15,weatherlink.com 1.10,2013-04-23 21:24:00,
2013-04-23 15:40:00,27.6,22.0,29.98,North,360,0.0,3.0,78,0.00,,,0.15,weatherlink.com 1.10,2013-04-23 21:40:00,
2013-04-23 15:55:00,27.6,21.0,29.99,WNW,286,0.0,4.0,75,0.00,,,0.15,weatherlink.com 1.10,2013-04-23 21:55:00,
2013-04-23 16:09:00,28.1,19.0,29.99,WNW,286,4.0,11.0,70,0.00,,,0.15,weatherlink.com 1.10,2013-04-23 22:09:00,
2013-04-23 16:24:00,28.8,20.0,29.99,WNW,286,0.0,9.0,69,0.00,,,0.15,weatherlink.com 1.10,2013-04-23 22:24:00,
2013-04-23 16:39:00,29.6,17.0,29.99,West,279,6.0,15.0,59,0.00,,,0.15,weatherlink.com 1.10,2013-04-23 22:39:00,
2013-04-23 16:54:00,29.8,15.0,30.00,WSW,240,5.0,10.0,54,0.00,,,0.15,weatherlink.com 1.10,2013-04-23 22:54:00,
2013-04-23 17:09:00,29.8,13.0,30.01,West,267,1.0,15.0,50,0.00,,,0.15,weatherlink.com 1.10,2013-04-23 23:09:00,
2013-04-23 17:24:00,29.4,10.0,30.03,WNW,287,7.0,15.0,44,0.00,,,0.15,weatherlink.com 1.10,2013-04-23 23:24:00,
2013-04-23 17:39:00,30.0,9.0,30.04,NW,305,8.0,13.0,42,0.00,,,0.15,weatherlink.com 1.10,2013-04-23 23:39:00,
2013-04-23 17:55:00,30.8,11.0,30.05,SW,230,7.0,15.0,43,0.00,,,0.15,weatherlink.com 1.10,2013-04-23 23:55:00,
2013-04-23 18:09:00,29.8,10.0,30.07,West,270,0.0,14.0,44,0.00,,,0.15,weatherlink.com 1.10,2013-04-24 00:09:00,
2013-04-23 18:24:00,28.9,7.0,30.08,WSW,245,10.0,12.0,40,0.00,,,0.15,weatherlink.com 1.10,2013-04-24 00:24:00,
2013-04-23 18:39:00,28.0,7.0,30.09,WNW,299,6.0,12.0,41,0.00,,,0.15,weatherlink.com 1.10,2013-04-24 00:39:00,
2013-04-23 18:54:00,27.4,7.0,30.10,SW,229,0.0,14.0,42,0.00,,,0.15,weatherlink.com 1.10,2013-04-24 00:54:00,
2013-04-23 19:10:00,26.7,6.0,30.12,SW,227,0.0,8.0,42,0.00,,,0.15,weatherlink.com 1.10,2013-04-24 01:10:00,
2013-04-23 19:25:00,26.2,6.0,30.13,West,272,1.0,13.0,43,0.00,,,0.15,weatherlink.com 1.10,2013-04-24 01:25:00,
2013-04-23 19:40:00,25.7,5.0,30.15,West,259,1.0,9.0,42,0.00,,,0.15,weatherlink.com 1.10,2013-04-24 01:40:00,
2013-04-23 19:55:00,24.7,7.0,30.16,WSW,252,2.0,6.0,46,0.00,,,0.15,weatherlink.com 1.10,2013-04-24 01:55:00,
2013-04-23 20:26:00,23.1,6.0,30.18,WSW,244,1.0,8.0,47,0.00,,,0.15,weatherlink.com 1.10,2013-04-24 02:26:00,
2013-04-23 20:41:00,23.1,5.0,30.19,SW,231,2.0,6.0,46,0.00,,,0.15,weatherlink.com 1.10,2013-04-24 02:41:00,
2013-04-23 20:56:00,22.9,4.0,30.21,WSW,248,0.0,8.0,44,0.00,,,0.15,weatherlink.com 1.10,2013-04-24 02:56:00,
2013-04-23 21:25:00,22.4,4.0,30.21,WSW,246,0.0,5.0,45,0.00,,,0.15,weatherlink.com 1.10,2013-04-24 03:25:00,
2013-04-23 21:40:00,21.8,4.0,30.21,West,259,1.0,3.0,46,0.00,,,0.15,weatherlink.com 1.10,2013-04-24 03:40:00,
2013-04-23 21:55:00,20.5,4.0,30.21,NNW,338,0.0,5.0,48,0.00,,,0.15,weatherlink.com 1.10,2013-04-24 03:55:00,
2013-04-23 22:11:00,19.8,8.0,30.23,NNW,340,0.0,1.0,60,0.00,,,0.15,weatherlink.com 1.10,2013-04-24 04:11:00,
2013-04-23 22:25:00,19.1,7.0,30.24,NNW,346,0.0,4.0,59,0.00,,,0.15,weatherlink.com 1.10,2013-04-24 04:25:00,
2013-04-23 22:40:00,19.0,7.0,30.24,NNW,346,0.0,1.0,61,0.00,,,0.15,weatherlink.com 1.10,2013-04-24 04:40:00,
2013-04-23 22:55:00,18.8,10.0,30.23,North,355,0.0,2.0,69,0.00,,,0.15,weatherlink.com 1.10,2013-04-24 04:55:00,
2013-04-23 23:10:00,18.1,10.0,30.23,North,355,0.0,1.0,69,0.00,,,0.15,weatherlink.com 1.10,2013-04-24 05:10:00,
2013-04-23 23:25:00,17.4,9.0,30.23,North,355,0.0,1.0,70,0.00,,,0.15,weatherlink.com 1.10,2013-04-24 05:25:00,
2013-04-23 23:40:00,17.1,10.0,30.22,West,280,0.0,2.0,73,0.00,,,0.15,weatherlink.com 1.10,2013-04-24 05:40:00,
2013-04-23 23:55:00,17.7,5.0,30.23,West,280,0.0,2.0,58,0.00,,,0.15,weatherlink.com 1.10,2013-04-24 05:55:00,